Change the Weather History Date:

Friday, August 8, 2014

  Actual Average Record
Temperature  
Mean Temperature 79 °F 79 °F  
Max Temperature 87 °F 90 °F 104 °F (1930)
Min Temperature 71 °F 69 °F 53 °F (1989)
Degree Days  
Heating Degree Days 0 0  
Month to date heating degree days 0 0  
Since 1 June heating degree days 0 3  
Since 1 July heating degree days 0 0  
Cooling Degree Days 14 14  
Month to date cooling degree days 113 112  
Year to date cooling degree days 1142 1061  
Since 1 June cooling degree days 878 882  
Growing Degree Days 29 (Base 50)    
Moisture  
Dew Point 71 °F    
Average Humidity 83    
Maximum Humidity 100    
Minimum Humidity 65    
Precipitation  
Precipitation T in 0.11 in 1.99 in (1923)
Month to date precipitation 0.71 0.87  
Year to date precipitation 30.64 29.95  
Snow  
Snow 0.00 in 0.00 in 0.00 in (2002)
Month to date snowfall 0.0 0.0  
Since 1 June snowfall 0.0 0.0  
Since 1 July snowfall 0.0 0.0  
Snow Depth 0.00 in    
Sea Level Pressure  
Sea Level Pressure 29.95 in    
Wind  
Wind Speed 5 mph (SSW)    
Max Wind Speed 13 mph    
Max Gust Speed 16 mph    
Visibility 10 miles    
Events      
T = Trace of Precipitation, MM = Missing Value Source: NWS Daily Summary

Daily Weather History Graph

Daily Weather History Graph

Search for Another Location

Airport or City:

Trip Planner

Search our weather history database for the weather conditions in past years. The results will help you decide how hot, cold, wet, or windy it might be!

Date:

Astronomy

Aug. 08, 2014 Rise Set
Actual Time 5:59 AM CDT 7:44 PM CDT
Civil Twilight 5:31 AM CDT 8:12 PM CDT
Nautical Twilight 4:58 AM CDT 8:45 PM CDT
Astronomical Twilight 4:22 AM CDT 9:21 PM CDT
Moon 5:55 PM CDT (8/8) 3:32 AM CDT (8/8)
Length of Visible Light 14h 40m
Length of Day
13h 45m
Waxing Gibbous, 94% of the Moon is Illuminated
Aug 8
Waxing Gibbous
Aug 10
Full
Aug 17
Last Quarter
Aug 25
New
Sep 2
First Quarter

Hourly Weather History & Observations

Time (CDT) Temp. Heat Index Dew Point Humidity Pressure Visibility Wind Dir Wind Speed Gust Speed Precip Events Conditions
12:53 AM 72.0 °F - 70.0 °F 93% 29.96 in 10.0 mi Calm Calm - 0.01 in   Overcast
1:53 AM 72.0 °F - 70.0 °F 93% 29.94 in 9.0 mi Calm Calm - N/A   Overcast
2:53 AM 72.0 °F - 71.1 °F 97% 29.94 in 9.0 mi Calm Calm - N/A   Overcast
3:53 AM 72.0 °F - 71.1 °F 97% 29.95 in 8.0 mi South 3.5 mph - N/A   Overcast
4:53 AM 72.0 °F - 71.1 °F 97% 29.96 in 8.0 mi Calm Calm - N/A   Overcast
5:53 AM 72.0 °F - 71.1 °F 97% 29.96 in 8.0 mi Calm Calm - 0.00 in   Overcast
6:53 AM 73.0 °F - 71.1 °F 93% 29.97 in 8.0 mi Calm Calm - N/A   Mostly Cloudy
7:53 AM 75.0 °F - 71.1 °F 87% 29.99 in 10.0 mi South 4.6 mph - N/A   Mostly Cloudy
8:53 AM 78.1 °F - 72.0 °F 81% 30.00 in 10.0 mi Variable 6.9 mph - N/A   Mostly Cloudy
9:53 AM 78.1 °F - 71.1 °F 79% 29.99 in 10.0 mi Calm Calm - 0.00 in   Mostly Cloudy
10:53 AM 82.9 °F 87.5 °F 71.1 °F 67% 29.99 in 10.0 mi SSW 6.9 mph - N/A   Mostly Cloudy
11:53 AM 82.0 °F 85.5 °F 69.1 °F 65% 29.99 in 10.0 mi WSW 5.8 mph - N/A   Mostly Cloudy
12:53 PM 82.9 °F 86.5 °F 69.1 °F 63% 29.97 in 10.0 mi WSW 5.8 mph - N/A   Mostly Cloudy
1:53 PM 84.9 °F 90.1 °F 71.1 °F 63% 29.94 in 10.0 mi South 6.9 mph - N/A   Mostly Cloudy
2:53 PM 84.9 °F 90.7 °F 72.0 °F 65% 29.93 in 10.0 mi West 8.1 mph - N/A   Mostly Cloudy
3:53 PM 84.9 °F 90.7 °F 72.0 °F 65% 29.92 in 10.0 mi SW 8.1 mph - N/A   Mostly Cloudy
4:53 PM 84.0 °F 89.0 °F 71.1 °F 65% 29.92 in 10.0 mi WSW 6.9 mph - N/A   Mostly Cloudy
5:53 PM 82.9 °F 88.0 °F 72.0 °F 69% 29.91 in 10.0 mi SSW 5.8 mph - N/A   Mostly Cloudy
6:53 PM 82.0 °F 87.4 °F 73.0 °F 74% 29.91 in 10.0 mi South 9.2 mph - N/A   Mostly Cloudy
7:53 PM 78.1 °F - 71.1 °F 79% 29.92 in 10.0 mi SSW 5.8 mph - N/A   Mostly Cloudy
8:53 PM 75.9 °F - 71.1 °F 85% 29.94 in 10.0 mi South 6.9 mph - N/A   Mostly Cloudy
9:53 PM 75.9 °F - 70.0 °F 82% 29.97 in 10.0 mi SSW 8.1 mph - N/A   Mostly Cloudy
10:53 PM 73.0 °F - 69.1 °F 87% 29.96 in 10.0 mi South 6.9 mph - N/A   Partly Cloudy
11:53 PM 72.0 °F - 68.0 °F 87% 29.96 in 10.0 mi South 4.6 mph - N/A   Scattered Clouds